Regional Weather Roundup
Issued by NWS Spokane, WA

Home | Current Version | Previous Version | Text Only | Print | Product List | Glossary On
Versions: 1 2 3 4 5 6 7 8 9 10 11 12 13 14 15 16 17 18 19 20 21 22 23 24 25 26 27 28 29 30 31 32 33 34 35 36 37 38 39 40 41 42 43 44 45 46 47 48 49 50
012
NZUS01 KOTX 231925
RWROTX

Eastern Washington/Northern Idaho Roundup
National Weather Service, Spokane WA
1200 PM PDT THU MAR 23 2017

Note: "fair" indicated few or no clouds below 12,000 feet with no
significant weather and/or obstructions to visibility.

...Northeast Washington and Northern Idaho Panhandle...

CITY           SKY/WX    TMP DP  RH WIND       PRES   REMARKS
Spokane Intl   PTSUNNY   44  29  55 S13       30.07R
Spokane Downto PTSUNNY   46  32  58 SW9       30.08S
Coeur d Alene  CLOUDY    43  31  62 S7        30.08R
Deer Park      PTSUNNY   44  30  57 S13       30.07S
Sandpoint      PTSUNNY   45  32  61 SW7       30.07S
Bonners Ferry  MOCLDY    45  30  57 SW13G20   30.04R

...Southeast Washington and southern Idaho Panhandle...

CITY           SKY/WX    TMP DP  RH WIND       PRES   REMARKS
Walla Walla    MOSUNNY   50  32  50 SW10G16   30.10F
Pullman/Moscow SUNNY     45  30  55 SW14      30.10S
Lewiston       SUNNY     50  36  58 NE5       30.09F
Lowell           N/A     52  38  58 SE3       30.10S
Grangeville    FAIR      41  34  75 NE5       30.05F

...Columbia Basin...

CITY           SKY/WX    TMP DP  RH WIND       PRES   REMARKS
Ephrata        MOSUNNY   50  27  40 S8        30.05F
Moses Lake     MOSUNNY   51  31  46 S6        30.07F
Pasco          MOSUNNY   53  30  41 SW10      30.11F
Richland       PTCLDY    55  33  43 S9        30.11F
Hermiston      SUNNY     52  33  48 W7        30.10F
Pendleton      SUNNY     48  31  51 SW7       30.09F

...East Slopes Cascades...

CITY           SKY/WX    TMP DP  RH WIND       PRES   REMARKS
The Dalles     PTSUNNY   52  36  54 CALM      30.10F
Yakima         SUNNY     52  33  48 E7        30.07F
Ellensburg     SUNNY     49  28  44 VRB5      30.05F
Wenatchee      MOSUNNY   54  28  37 VRB3      30.04F
Omak           PTSUNNY   48  32  53 SE7       30.05S
Chelan           N/A     48  27  43 MISG        N/A
Sunnyside      CLEAR     50  31  48 E5        30.09F

...Southern British Columbia...

CITY           SKY/WX    TMP DP  RH WIND       PRES   REMARKS
Penticton      CLOUDY    46  41  81 S9        30.03S
Castlegar      PTSUNNY   48  36  61 S8        30.02S
Cranbrook      PTSUNNY   45  28  53 S16G23    29.92R
Osoyoos          N/A     48  36  61 S5          N/A
Creston          N/A     46  34  61 S12G17      N/A

...Western Montana...

CITY           SKY/WX    TMP DP  RH WIND       PRES   REMARKS
Kalispell      CLOUDY    43  35  73 N12       29.98F
Missoula       CLOUDY    48  26  42 NW15G21   30.00F

...Neighboring Cities...

CITY           SKY/WX    TMP DP  RH WIND       PRES   REMARKS
Seattle        PTSUNNY   50  35  56 SW10      30.06F
Portland       PTSUNNY   52  36  54 E13       30.07F
Boise          SUNNY     50  30  46 NW15G21   30.04R
Great Falls    MOSUNNY   54  17  23 W20G26    29.85F
Calgary        MOSUNNY   52  14  22 W20G29    29.74S



USA.gov is the U.S. government's official web portal to all federal, state and local government web resources and services.